Wind_Speed
37 37 37 37 37 38 38 38 39 38 37 35 36 36 36 36 36 36 36 37 37 37 38 38 39 40 40 40 41 42 42 43 43 44 45 46 46 46 46 45 45 45 45 45
38 37 38 38 38 38 38 38 38 38 36 35 36 36 37 36 36 36 37 37 38 38 38 38 39 39 40 40 40 40 41 41 42 42 44 44 44 45 45 45 45 44 44 44
37 37 38 37 36 36 36 36 37 37 35 35 36 36 36 36 37 37 37 37 38 38 38 39 39 39 39 39 40 40 40 40 41 42 43 43 43 44 44 45 44 44 43 43
36 36 37 36 35 36 36 36 36 36 36 36 36 36 36 37 38 37 37 37 38 38 38 39 39 39 39 39 40 40 40 41 41 42 42 43 43 44 45 45 44 43 42 41
36 37 37 35 35 35 36 36 36 37 37 37 37 37 37 37 37 37 37 37 37 38 38 38 38 39 39 39 40 40 41 41 41 41 42 42 42 43 43 43 42 41 40 40
36 37 36 34 34 35 36 37 36 37 37 37 37 37 36 37 37 36 36 37 37 37 37 38 38 38 39 39 39 40 40 41 41 41 42 41 41 41 40 40 39 39 39 39
35 36 35 34 34 35 36 36 36 36 36 37 37 38 37 36 36 36 36 37 37 37 37 37 38 38 38 39 39 40 40 41 41 40 40 39 39 39 38 37 37 36 36 36
33 34 34 34 34 35 35 35 35 35 36 37 37 37 36 36 36 36 36 36 37 37 37 37 37 37 37 38 38 39 39 39 39 38 38 37 37 37 36 34 34 34 34 34
33 33 34 34 35 35 35 34 34 36 36 37 36 36 36 36 36 36 36 36 37 37 37 37 37 37 37 37 37 37 37 36 36 36 36 35 35 34 33 33 33 32 32 32
34 33 33 33 34 34 34 34 34 35 35 36 36 35 35 35 35 35 36 36 37 37 37 37 37 36 36 36 35 35 35 35 34 34 34 34 33 32 31 31 31 31 31 31
33 33 33 33 33 33 34 34 34 34 34 35 35 34 34 34 35 36 35 36 36 36 36 36 36 35 35 34 34 34 33 33 33 33 33 32 31 31 30 30 30 30 29 29
32 31 32 32 32 33 34 34 34 34 35 35 34 34 34 34 35 35 35 36 36 36 36 36 35 34 33 33 33 33 32 32 32 31 31 30 30 30 29 29 29 29 28 28
31 30 32 32 33 33 34 34 34 34 34 34 34 34 34 34 34 35 35 35 35 35 35 35 34 33 32 32 32 32 31 31 31 30 29 29 29 29 28 28 29 29 28 28
30 31 31 32 32 33 34 34 34 34 34 34 34 34 34 35 35 35 35 35 35 35 35 34 33 33 32 32 31 31 31 30 30 29 28 28 28 27 27 27 28 29 29 28
31 31 31 32 32 32 32 32 32 32 33 33 33 33 34 34 34 34 35 34 34 34 33 33 32 32 32 31 31 30 30 29 29 28 28 28 27 27 27 27 27 28 28 28
30 31 31 31 31 31 31 30 31 31 31 32 32 32 33 32 32 33 33 32 32 32 32 31 31 31 31 30 30 29 29 28 28 27 27 27 27 26 26 27 27 27 27 27
28 29 29 29 30 30 30 30 30 30 31 31 32 32 32 32 32 32 32 31 31 31 30 30 30 30 30 30 29 29 28 28 27 27 26 26 26 26 26 26 26 26 26 26
26 27 28 29 29 30 29 30 30 31 31 31 31 31 31 31 31 31 31 30 30 30 30 30 29 29 29 29 29 28 28 27 27 26 26 26 25 25 25 26 26 26 25 25
27 27 28 29 29 29 29 29 30 31 31 30 30 30 30 30 30 30 30 29 29 29 29 29 29 29 29 28 28 27 27 27 26 26 26 26 25 25 25 26 26 26 25 25
27 28 28 28 28 28 28 29 30 30 29 28 28 28 28 28 28 29 29 28 28 27 28 28 28 28 28 28 27 27 26 26 26 26 25 25 25 25 26 26 26 26 25 24
26 26 26 26 27 27 28 28 28 27 26 26 26 26 26 27 27 27 27 27 27 27 27 27 27 27 27 27 26 26 26 25 25 25 25 25 25 26 26 26 26 25 24 23
25 25 25 25 25 26 26 25 25 25 24 24 24 24 25 26 26 26 26 26 26 27 27 27 26 26 26 25 25 25 24 24 24 24 25 25 25 25 25 25 24 24 24 23
24 24 24 24 25 25 25 24 24 24 24 24 24 25 25 26 26 25 26 26 26 26 26 26 25 25 25 24 24 24 24 24 24 24 24 24 24 24 23 23 23 23 23 23
24 24 24 24 24 24 24 24 24 24 25 25 25 26 26 26 26 26 26 26 26 26 25 25 25 24 24 23 23 23 23 23 23 23 22 23 23 23 23 23 23 23 23 22
23 23 23 23 23 24 24 24 24 25 25 26 26 26 26 25 25 26 26 26 26 25 25 24 23 23 23 22 22 21 21 22 22 22 22 22 22 22 22 22 22 22 21 21
23 23 23 23 23 23 23 24 24 25 25 26 26 26 26 25 25 25 25 24 24 23 22 22 21 21 21 21 21 22 22 22 22 22 22 22 22 22 21 21 21 21 20 20
23 23 23 23 23 23 24 24 24 25 25 25 25 25 25 25 24 24 23 22 22 21 21 21 21 21 21 21 21 22 22 22 22 22 22 22 22 21 21 20 20 20 20 20
Wind_Direction
279 280 280 279 279 280 281 282 283 286 287 289 287 286 286 286 285 285 285 285 286 286 286 287 287 287 287 287 287 288 288 288 287 287 287 287 287 286 286 285 283 282 281 280
279 280 280 279 279 280 281 282 284 285 286 287 287 286 286 285 285 284 284 285 286 287 287 287 287 287 288 288 288 289 289 289 288 288 288 288 287 287 286 285 284 283 281 280
281 281 281 280 282 281 282 283 283 284 285 285 286 287 285 285 285 285 286 287 287 287 287 288 288 288 288 287 288 289 290 290 290 289 289 288 288 287 286 285 284 283 282 281
283 281 281 284 284 284 283 283 283 283 284 285 285 285 285 285 286 287 288 288 288 288 288 289 289 288 288 288 289 289 290 291 291 291 290 290 289 288 287 286 284 282 281 280
284 284 283 284 285 285 285 283 283 284 284 285 285 285 286 287 287 287 288 288 288 288 289 289 290 290 290 291 291 291 291 292 292 292 292 291 292 291 289 287 284 281 280 280
284 284 285 285 285 286 285 285 284 284 284 284 285 286 287 287 287 287 288 288 288 288 289 290 291 292 292 293 293 293 293 293 293 294 294 293 292 293 291 288 284 282 281 281
284 284 285 286 287 287 286 287 286 284 284 285 286 287 286 286 286 286 288 289 289 289 290 291 292 293 294 294 294 295 294 294 294 294 294 294 294 293 291 288 285 283 282 282
284 284 285 287 287 286 286 286 286 286 285 285 286 287 286 286 286 287 288 289 289 290 290 291 292 293 294 294 295 296 296 295 295 295 295 296 297 294 291 288 286 283 283 282
283 285 285 286 286 286 286 286 285 285 286 287 286 286 286 286 287 287 287 288 290 291 291 291 292 293 293 295 296 296 297 297 296 296 297 297 297 295 291 289 287 284 283 283
282 284 285 284 284 284 285 286 286 287 287 287 287 286 287 288 288 288 289 290 291 292 292 292 292 293 294 295 296 296 297 297 296 296 297 297 297 295 292 291 289 286 285 284
284 284 284 283 282 281 282 284 285 287 288 288 288 288 288 289 289 290 291 291 291 292 292 292 292 293 294 295 295 296 297 297 296 297 297 297 297 296 294 294 293 290 287 286
284 284 283 282 282 283 284 284 284 286 287 288 288 288 288 289 290 290 291 291 292 292 292 292 292 292 294 295 295 296 296 297 297 296 296 297 297 297 296 295 293 292 291 289
283 283 282 282 284 285 285 285 285 286 287 287 287 288 289 290 291 291 291 292 292 293 293 292 292 292 293 294 295 296 295 296 297 297 295 296 297 297 297 295 294 292 292 291
281 281 281 283 285 286 286 287 287 287 288 288 288 289 290 291 291 292 292 292 293 293 293 293 292 291 292 294 295 296 296 296 295 295 295 295 295 295 295 294 294 293 294 294
281 281 283 284 286 287 288 287 287 288 289 289 289 290 291 291 292 292 292 292 293 293 293 292 292 292 292 293 294 295 296 296 295 294 294 295 295 294 295 296 296 295 295 295
281 282 283 285 286 288 288 288 287 288 289 289 289 290 291 291 292 292 293 293 293 293 293 293 292 292 293 293 294 294 295 295 294 293 294 295 295 295 297 298 298 298 297 296
283 283 285 286 287 287 288 288 288 288 289 289 290 291 291 292 292 293 293 293 293 292 292 293 292 293 293 293 293 293 293 293 293 293 294 295 296 296 297 299 300 300 299 299
283 284 285 286 287 287 288 289 289 289 289 290 291 291 292 292 293 293 294 294 294 294 293 294 294 293 294 294 293 292 292 292 292 293 295 296 297 297 299 300 301 301 300 299
284 285 285 286 287 288 289 290 291 292 292 292 291 291 293 293 293 294 295 295 295 295 294 294 294 294 294 294 293 292 292 292 292 293 295 295 296 297 299 300 301 300 299 298
286 286 286 288 289 290 291 293 293 293 294 294 294 293 293 294 294 296 297 297 296 296 296 296 295 294 294 295 294 293 292 292 292 293 295 296 297 298 299 300 300 299 298 297
288 288 288 289 291 293 294 294 293 293 294 296 296 296 296 296 297 298 298 297 297 297 296 297 296 295 295 295 296 294 293 292 292 293 294 296 298 298 299 299 298 298 297 295
292 292 292 292 293 294 294 294 293 294 296 297 298 298 299 300 301 300 299 299 298 298 297 297 297 296 295 296 296 295 294 294 294 295 295 297 298 298 299 298 297 297 296 295
293 293 292 293 293 294 295 295 295 296 297 298 299 300 301 301 302 301 301 300 300 299 298 298 298 298 297 296 296 296 295 295 295 296 296 297 298 297 298 299 298 297 296 295
294 294 293 292 293 294 296 296 297 297 298 299 301 301 301 301 302 302 303 302 300 299 299 299 298 298 298 297 297 296 296 297 297 297 297 298 298 298 298 298 299 298 297 296
296 295 295 294 294 295 296 297 298 299 299 299 301 302 302 302 302 302 302 302 301 301 301 300 299 298 299 299 298 298 298 299 299 299 298 298 299 299 300 299 300 300 299 297
297 296 296 296 296 296 297 298 298 299 299 299 300 301 301 302 302 303 303 302 302 302 302 301 302 302 301 300 298 298 299 300 300 299 298 298 299 299 299 300 301 301 300 298
298 299 299 299 298 297 298 299 299 300 300 301 301 301 301 301 302 303 304 304 303 303 302 302 302 302 302 301 299 298 298 298 298 298 298 298 297 298 297 298 298 299 299 299
Height
5605 5603 5602 5600 5599 5597 5594 5592 5590 5589 5587 5586 5582 5579 5576 5574 5571 5569 5566 5563 5560 5557 5554 5551 5548 5545 5542 5539 5535 5532 5528 5525 5521 5518 5514 5510 5507 5504 5500 5497 5493 5490 5488 5485
5594 5592 5590 5588 5588 5586 5583 5581 5579 5577 5576 5575 5571 5568 5565 5563 5560 5558 5555 5552 5549 5546 5543 5540 5537 5534 5531 5527 5524 5520 5516 5513 5509 5505 5501 5498 5494 5490 5487 5484 5481 5478 5475 5472
5582 5581 5578 5578 5578 5574 5573 5571 5569 5566 5566 5563 5560 5557 5554 5552 5549 5546 5544 5541 5538 5535 5532 5529 5526 5522 5519 5516 5512 5509 5505 5501 5497 5493 5489 5485 5481 5477 5473 5470 5467 5464 5462 5459
5570 5569 5567 5570 5566 5564 5561 5560 5558 5555 5553 5551 5549 5546 5543 5540 5538 5535 5533 5530 5527 5524 5521 5518 5514 5511 5508 5504 5500 5497 5493 5489 5485 5481 5476 5472 5468 5464 5460 5457 5454 5451 5449 5447
5559 5556 5556 5558 5555 5552 5549 5549 5547 5544 5542 5539 5537 5535 5533 5529 5527 5524 5521 5519 5516 5513 5510 5507 5503 5499 5496 5492 5488 5484 5481 5477 5472 5468 5464 5459 5455 5451 5447 5443 5440 5438 5436 5434
5548 5546 5546 5548 5544 5540 5539 5537 5536 5533 5530 5528 5526 5524 5523 5519 5516 5513 5510 5507 5504 5502 5498 5495 5492 5488 5484 5480 5476 5473 5468 5464 5460 5456 5451 5447 5443 5438 5434 5430 5427 5425 5423 5421
5539 5536 5535 5536 5533 5530 5529 5528 5525 5522 5519 5517 5514 5513 5511 5507 5505 5502 5499 5496 5493 5490 5487 5484 5480 5477 5473 5469 5465 5461 5456 5452 5448 5443 5439 5435 5430 5426 5422 5418 5415 5413 5411 5409
5529 5527 5529 5525 5522 5521 5518 5515 5513 5510 5508 5506 5504 5501 5498 5496 5493 5491 5488 5485 5482 5479 5476 5472 5469 5465 5462 5457 5453 5449 5444 5440 5435 5431 5427 5423 5418 5414 5410 5407 5404 5402 5400 5398
5520 5520 5517 5514 5511 5509 5507 5505 5502 5499 5497 5495 5493 5490 5488 5485 5482 5479 5477 5474 5471 5468 5465 5461 5457 5454 5450 5446 5442 5437 5433 5429 5424 5420 5416 5412 5408 5403 5400 5396 5394 5392 5389 5388
5509 5509 5507 5503 5500 5498 5496 5494 5491 5489 5487 5484 5482 5479 5477 5474 5471 5468 5466 5463 5460 5457 5453 5450 5446 5443 5439 5435 5431 5427 5423 5418 5414 5410 5406 5402 5398 5394 5390 5387 5384 5382 5380 5378
5499 5499 5496 5493 5490 5488 5486 5483 5481 5479 5476 5473 5471 5468 5466 5463 5461 5458 5455 5452 5449 5446 5443 5439 5436 5432 5429 5425 5421 5417 5413 5409 5405 5401 5397 5393 5389 5385 5382 5378 5375 5373 5370 5368
5490 5488 5485 5483 5481 5478 5476 5474 5471 5469 5466 5463 5461 5458 5456 5453 5450 5447 5444 5441 5438 5435 5432 5428 5425 5422 5418 5415 5411 5408 5404 5400 5396 5392 5388 5384 5380 5377 5373 5370 5367 5364 5361 5359
5479 5477 5475 5473 5471 5469 5466 5464 5461 5459 5456 5453 5451 5448 5445 5443 5440 5436 5433 5430 5427 5424 5421 5418 5415 5412 5408 5405 5402 5398 5395 5391 5387 5383 5380 5376 5373 5369 5366 5362 5359 5356 5353 5351
5469 5467 5465 5463 5461 5459 5456 5454 5451 5448 5446 5443 5441 5438 5435 5432 5429 5426 5423 5420 5417 5414 5410 5407 5405 5402 5399 5395 5392 5389 5385 5382 5378 5375 5372 5368 5365 5362 5358 5355 5352 5348 5345 5343
5459 5457 5455 5453 5451 5449 5446 5444 5441 5439 5436 5433 5430 5428 5425 5422 5419 5416 5413 5410 5407 5403 5400 5398 5395 5392 5389 5386 5383 5379 5376 5373 5370 5367 5364 5360 5357 5354 5351 5348 5344 5341 5338 5334
5449 5447 5445 5444 5441 5439 5437 5434 5432 5429 5426 5424 5421 5418 5415 5412 5409 5406 5403 5400 5397 5394 5391 5388 5385 5382 5379 5376 5373 5370 5367 5364 5361 5358 5355 5352 5349 5346 5343 5340 5337 5333 5330 5327
5440 5438 5436 5434 5432 5430 5427 5425 5422 5420 5417 5414 5412 5409 5406 5403 5400 5397 5393 5390 5387 5385 5382 5379 5376 5373 5370 5367 5364 5361 5358 5355 5353 5350 5347 5344 5341 5338 5335 5332 5329 5326 5322 5319
5431 5429 5427 5425 5423 5420 5418 5415 5413 5410 5407 5405 5402 5399 5396 5393 5390 5387 5384 5381 5378 5375 5372 5369 5366 5363 5361 5358 5355 5352 5349 5347 5344 5342 5339 5336 5333 5331 5328 5325 5321 5318 5315 5312
5422 5420 5418 5416 5414 5411 5409 5406 5404 5401 5398 5395 5393 5390 5387 5384 5381 5378 5375 5372 5369 5366 5363 5360 5357 5354 5351 5348 5346 5343 5341 5338 5336 5334 5331 5328 5326 5323 5320 5317 5314 5311 5308 5305
5413 5411 5409 5407 5405 5403 5400 5398 5395 5392 5389 5386 5384 5381 5378 5375 5372 5369 5366 5363 5360 5357 5354 5351 5348 5345 5343 5340 5337 5335 5332 5330 5328 5326 5323 5321 5318 5315 5312 5310 5307 5304 5301 5298
5405 5403 5401 5399 5396 5394 5392 5389 5386 5383 5381 5378 5376 5373 5370 5367 5364 5361 5358 5355 5352 5349 5346 5343 5340 5337 5334 5331 5329 5326 5324 5322 5320 5317 5315 5313 5310 5307 5305 5302 5299 5297 5294 5291
5397 5395 5393 5390 5388 5386 5383 5381 5378 5376 5373 5370 5368 5365 5362 5359 5356 5353 5350 5347 5344 5341 5338 5335 5332 5329 5326 5323 5321 5318 5316 5314 5312 5309 5307 5305 5302 5300 5297 5294 5292 5289 5287 5285
5389 5387 5385 5383 5380 5378 5375 5373 5371 5368 5366 5363 5360 5358 5355 5352 5348 5345 5342 5339 5336 5333 5330 5327 5324 5321 5318 5315 5313 5311 5308 5306 5304 5302 5299 5297 5295 5292 5290 5287 5285 5282 5280 5278
5382 5379 5377 5375 5373 5370 5368 5366 5363 5361 5358 5355 5353 5350 5347 5344 5341 5337 5334 5331 5328 5325 5322 5319 5316 5313 5310 5308 5306 5303 5301 5299 5297 5294 5292 5290 5287 5285 5283 5280 5278 5275 5273 5271
5374 5372 5369 5367 5365 5363 5361 5358 5356 5353 5351 5348 5345 5342 5339 5336 5333 5330 5326 5323 5320 5317 5314 5311 5308 5305 5303 5301 5298 5296 5294 5292 5290 5287 5285 5283 5281 5278 5276 5274 5271 5269 5267 5264
5366 5364 5362 5359 5357 5355 5353 5351 5348 5346 5343 5340 5337 5335 5332 5328 5325 5322 5319 5316 5312 5309 5307 5304 5301 5299 5296 5294 5292 5290 5287 5285 5283 5281 5278 5276 5274 5271 5269 5267 5265 5262 5260 5258
5359 5357 5354 5352 5349 5347 5345 5343 5341 5338 5335 5333 5330 5327 5324 5321 5318 5315 5312 5309 5306 5303 5300 5298 5295 5292 5290 5287 5285 5283 5280 5278 5276 5273 5271 5269 5267 5265 5263 5261 5258 5256 5254 5252